Terrell, TX

6:28 PM CDT on April 30, 2017 (GMT -0500)
Terrell Municipal

Weather History for KTRL - June, 2013

Change the Weather History Date:

Saturday, June 15, 2013

  Actual Average (KGVT) Record (KGVT)
Temperature  
Mean Temperature 82 °F -  
Max Temperature 91 °F 85 °F 98 °F (2011)
Min Temperature 73 °F 70 °F 62 °F (2000)
Cooling Degree Days 17    
Growing Degree Days 32 (Base 50)    
Moisture  
Dew Point 72 °F    
Average Humidity 76    
Maximum Humidity 94    
Minimum Humidity 53    
Precipitation  
Precipitation 0.83 in - - ()
Sea Level Pressure  
Sea Level Pressure 29.94 in    
Wind  
Wind Speed 7 mph (ESE)    
Max Wind Speed 13 mph    
Max Gust Speed 33 mph    
Visibility 8 miles    
Events Fog , Rain    
Averages and records for this station are not official NWS values.
T = Trace of Precipitation, MM = Missing Value Source: NWS Daily Summary

Daily Weather History Graph

Daily Weather History Graph

Search for Another Location

Airport or City:

Trip Planner

Search our weather history database for the weather conditions in past years. The results will help you decide how hot, cold, wet, or windy it might be!

Date:

Astronomy

Jun. 15, 2013 Rise Set
Actual Time 6:16 AM CDT 8:34 PM CDT
Civil Twilight 5:48 AM CDT 9:03 PM CDT
Nautical Twilight 5:13 AM CDT 9:38 PM CDT
Astronomical Twilight 4:35 AM CDT 10:16 PM CDT
Moon 12:33 PM CDT (6/15) 12:28 AM CDT (6/15)
Length of Visible Light 15h 14m
Length of Day
14h 17m
Waxing Crescent, 40% of the Moon is Illuminated
Jun 15
Waxing Crescent
Jun 16
First Quarter
Jun 23
Full
Jun 29
Last Quarter
Jul 8
New

Hourly Weather History & Observations

Time (CDT) Temp. Heat Index Dew Point Humidity Pressure Visibility Wind Dir Wind Speed Gust Speed Precip Events Conditions
12:53 AM 84.0 °F 91.2 °F 73.9 °F 72% 29.94 in 10.0 mi East 4.6 mph - N/A   Clear
1:53 AM 82.9 °F 89.4 °F 73.9 °F 74% 29.94 in 10.0 mi ESE 4.6 mph - N/A   Mostly Cloudy
2:53 AM 82.0 °F 89.4 °F 75.9 °F 82% 29.92 in 10.0 mi ESE 4.6 mph - N/A   Scattered Clouds
3:51 AM 77.0 °F - 69.8 °F 78% 29.95 in 9.0 mi South 12.7 mph 33.4 mph N/A   Mostly Cloudy
3:53 AM 77.0 °F - 70.0 °F 79% 29.93 in 10.0 mi South 12.7 mph 25.3 mph N/A   Mostly Cloudy
4:53 AM 75.9 °F - 66.0 °F 71% 29.90 in 10.0 mi Calm Calm - 0.00 in Rain Light Rain
5:53 AM 73.9 °F - 68.0 °F 82% 29.93 in 10.0 mi East 5.8 mph - 0.00 in   Clear
6:53 AM 75.9 °F - 69.1 °F 79% 29.96 in 10.0 mi East 4.6 mph - N/A   Clear
7:53 AM 79.0 °F - 71.1 °F 77% 29.98 in 10.0 mi SE 3.5 mph - N/A   Clear
8:53 AM 82.0 °F 86.7 °F 72.0 °F 71% 29.99 in 10.0 mi SSE 10.4 mph - N/A   Clear
9:53 AM 81.0 °F 84.4 °F 70.0 °F 69% 30.00 in 10.0 mi SSE 10.4 mph - N/A   Mostly Cloudy
10:53 AM 82.9 °F 88.0 °F 72.0 °F 69% 29.99 in 10.0 mi SSE 10.4 mph - N/A   Mostly Cloudy
11:53 AM 84.9 °F 91.4 °F 73.0 °F 67% 29.98 in 10.0 mi Variable 4.6 mph - N/A   Mostly Cloudy
12:53 PM 88.0 °F 95.6 °F 73.0 °F 61% 29.96 in 10.0 mi SSE 5.8 mph - N/A   Clear
1:53 PM 90.0 °F 99.0 °F 73.9 °F 59% 29.95 in 10.0 mi SSW 8.1 mph - N/A   Clear
2:53 PM 91.9 °F 100.7 °F 73.0 °F 54% 29.94 in 10.0 mi SSW 8.1 mph - N/A   Clear
3:53 PM 91.9 °F 101.3 °F 73.9 °F 55% 29.91 in 10.0 mi SW 8.1 mph - N/A   Partly Cloudy
4:53 PM 91.0 °F 98.2 °F 72.0 °F 53% 29.90 in 10.0 mi WSW 8.1 mph - N/A   Clear
5:53 PM 86.0 °F 93.8 °F 73.9 °F 67% 29.90 in 10.0 mi West 6.9 mph - 0.00 in Rain Light Rain
6:39 PM 78.8 °F - 71.6 °F 78% 29.97 in 1.8 mi SSW 6.9 mph - 0.13 in Rain Heavy Rain
6:53 PM 73.0 °F - 70.0 °F 90% 29.94 in 0.5 mi NE 10.4 mph - 0.78 in Fog , Rain Rain
6:56 PM 73.4 °F - 69.8 °F 88% 29.94 in 1.5 mi NNE 11.5 mph - 0.03 in Rain Heavy Rain
6:58 PM 73.4 °F - 71.6 °F 94% 29.94 in 2.0 mi NNE 9.2 mph - 0.04 in Rain Heavy Rain
7:03 PM 73.4 °F - 71.6 °F 94% 29.94 in 3.0 mi NE 6.9 mph - 0.05 in Rain Rain
7:53 PM 75.9 °F - 72.0 °F 87% 29.93 in 10.0 mi East 8.1 mph - 0.05 in   Mostly Cloudy
8:53 PM 75.9 °F - 73.0 °F 91% 29.92 in 10.0 mi NE 3.5 mph - N/A   Clear
9:53 PM 75.9 °F - 73.0 °F 91% 29.94 in 10.0 mi ENE 3.5 mph - N/A   Mostly Cloudy
10:53 PM 75.9 °F - 73.9 °F 94% 29.95 in 10.0 mi ENE 5.8 mph - N/A   Partly Cloudy
11:53 PM 77.0 °F - 73.9 °F 90% 29.95 in 10.0 mi East 4.6 mph - 0.00 in   Clear